Location: Darmstadt
(49.8706°N, 8.6494°E)
Time: 07:19:30
(UTC+01:00)

Cosmos 1400 Rocket - Pass Details

Date: 31 October 2020
Orbit: 521 x 568 km, 81.2° (Epoch: 03 December)

Event Time Altitude Azimuth Distance (km) Brightness Sun altitude
Rises 17:55:12 0° 184° (S) 2,748 6.6 -8.8°
Reaches altitude 10° 17:57:23 10° 182° (S) 1,852 5.7 -9.1°
Maximum altitude 18:01:26 68° 99° (E) 605 2.8 -9.8°
Drops below altitude 10° 18:05:29 10° 17° (NNE) 1,844 5.2 -10.4°
Sets 18:07:39 0° 15° (NNE) 2,735 6.1 -10.8°
